Retour au catalogue

COSMOS 1897

ActifMilitaireGEO
NORAD 18575·PAYLOAD·🇷🇺 Russia

Lancé Nov 26, 1987 depuis Baikonur Cosmodrome

Loading…

TLE

FraisSource: Space-Track

Époque: Sep 13, 2026, 16:01 UTC

1 18575U 87096A   26256.66771422 -.00000309  00000-0  00000-0 0  9995
2 18575  10.9078 326.3453 0006688 163.4425 200.4015  1.00281981142089

Suivez COSMOS 1897 en temps réel avec AllMySat

Download on the App Store